カタログに戻る

FENGYUN 1C DEB

運用中SSO
NORAD 41827·DEBRIS·🇨🇳 China

打ち上げ May 10, 1999 から Taiyuan Satellite Launch Center

Loading…

次のパス (今後24時間)

TLE

最新Source: Space-Track

元期: Sep 12, 2026, 03:29 UTC

1 41827U 99025EYE 26255.14534162  .00002123  00000-0  87548-3 0  9996
2 41827  98.7267 328.5452 0058372 141.1725 219.3671 14.26944879512289

AllMySatでFENGYUN 1C DEBをリアルタイム追跡

Download on the App Store